DW0000 Weather Reports


time (UTC)temp
F
wind
direction
speed
knots
gust
knots
rain 1hr
in
rain 24hr
in
rain mn
in
humidity
%
barometer
mb
20260903235504 62 315 24.3 37.4 0.00 0.03 0.00 89 1012.8
20260903235007 61 320 24.3 32.2 0.00 0.03 0.00 91 1013.0
20260903234505 61 323 26.1 40.0 0.00 0.03 0.00 91 1013.0
20260903233505 60 319 22.6 33.9 0.00 0.03 0.00 93 1013.1
20260903233007 59 322 27.8 41.7 0.00 0.03 0.00 93 1013.1
20260903232505 60 324 32.2 45.2 0.00 0.03 0.00 92 1013.2
20260903231505 60 317 23.5 33.9 0.00 0.03 0.00 92 1013.2
20260903231007 60 314 24.3 33.0 0.00 0.03 0.00 91 1013.2
20260903225005 60 318 23.5 40.8 0.00 0.03 0.00 89 1013.5
20260903224505 60 316 21.7 33.0 0.00 0.03 0.00 89 1013.3
20260903224006 60 314 22.6 34.8 0.00 0.03 0.00 89 1013.5
20260903223504 60 312 26.1 37.4 0.00 0.03 0.00 89 1013.5
20260903222507 60 316 26.1 33.9 0.00 0.03 0.00 88 1013.3
20260903222005 60 323 25.2 38.2 0.00 0.03 0.00 88 1013.3
20260903220505 60 326 21.7 34.8 0.00 0.03 0.00 89 1013.7
20260903214005 59 323 22.6 33.9 0.00 0.03 0.00 90 1014.0
20260903213006 59 321 22.6 28.7 0.00 0.03 0.00 90 1014.0
20260903212504 59 310 23.5 33.0 0.00 0.03 0.00 90 1013.8
20260903211507 59 320 27.8 39.1 0.00 0.03 0.00 90 1014.2
20260903211005 59 317 32.2 40.0 0.00 0.03 0.00 89 1014.0
20260903210506 58 317 24.3 31.3 0.00 0.03 0.00 89 1014.2
20260903210005 58 317 21.7 32.2 0.00 0.03 0.00 89 1014.2
20260903205507 58 323 22.6 30.4 0.00 0.03 0.00 89 1014.3
20260903203506 58 316 24.3 39.1 0.00 0.03 0.00 89 1014.5
20260903202505 58 304 26.1 32.2 0.00 0.03 0.00 89 1014.5
20260903202004 58 312 25.2 32.2 0.00 0.03 0.00 89 1014.4
20260903201506 58 320 27.8 34.8 0.00 0.03 0.00 88 1014.6
20260903200505 58 319 27.8 39.1 0.00 0.03 0.00 88 1014.3
20260903195504 58 314 24.3 33.0 0.00 0.03 0.00 90 1014.5
20260903193506 57 312 26.1 35.6 0.00 0.03 0.00 93 1014.3
20260903192005 57 307 26.9 33.0 0.00 0.03 0.00 94 1014.3
20260903191006 56 304 21.7 30.4 0.00 0.03 0.00 94 1014.5
20260903185505 56 316 25.2 34.8 0.00 0.03 0.00 94 1014.6
20260903183006 56 311 20.9 33.9 0.00 0.03 0.00 94 1014.8
20260903182004 57 306 22.6 30.4 0.00 0.03 0.00 94 1014.8
20260903181504 57 312 23.5 28.7 0.00 0.03 0.00 94 1014.9
20260903175505 57 311 24.3 28.7 0.00 0.03 0.00 95 1015.1
20260903175007 57 316 22.6 33.0 0.00 0.03 0.00 95 1015.0
20260903174505 57 319 22.6 34.8 0.00 0.03 0.00 95 1015.0
20260903174004 57 317 20.0 34.8 0.00 0.03 0.00 95 1015.0
20260903171506 57 311 18.2 30.4 0.00 0.03 0.00 95 1015.2
20260903171005 57 308 24.3 32.2 0.00 0.03 0.00 95 1015.2
20260903170505 57 321 22.6 30.4 0.00 0.03 0.00 95 1015.0
20260903165506 57 311 23.5 27.8 0.00 0.03 0.00 95 1015.0
20260903164507 57 321 20.0 30.4 0.00 0.05 0.00 96 1015.3
20260903164008 57 316 22.6 31.3 0.00 0.05 0.00 96 1015.2
20260903162506 57 318 22.6 33.0 0.00 0.06 0.00 96 1015.2
20260903160508 57 312 22.6 31.3 0.00 0.06 0.00 96 1015.1
20260903155507 58 317 22.6 28.7 0.00 0.06 0.00 96 1015.3
20260903155007 58 319 21.7 37.4 0.00 0.07 0.00 96 1015.5
20260903152006 58 313 15.6 25.2 0.00 0.18 0.00 95 1015.7
20260903151506 57 321 21.7 33.0 0.00 0.18 0.00 95 1015.6
20260903151006 57 323 19.1 31.3 0.00 0.18 0.00 95 1015.7
20260903150507 57 320 21.7 37.4 0.00 0.18 0.00 95 1015.7
20260903144508 57 322 19.1 26.1 0.00 0.18 0.00 95 1015.8
20260903142506 57 311 20.9 26.9 0.00 0.18 0.00 95 1016.3
20260903142007 58 308 17.4 26.1 0.00 0.18 0.00 96 1016.4
20260903140506 58 328 18.2 26.9 0.00 0.18 0.00 95 1016.5
20260903140007 58 316 19.1 27.8 0.00 0.18 0.00 95 1016.5
20260903134506 58 306 19.1 31.3 0.00 0.18 0.00 95 1016.6
20260903134008 58 314 19.1 28.7 0.00 0.18 0.00 96 1016.9
20260903133506 58 316 20.9 27.8 0.00 0.18 0.00 96 1016.6
20260903132008 58 320 22.6 32.2 0.00 0.18 0.00 96 1016.6
20260903131506 58 316 21.7 28.7 0.00 0.18 0.00 96 1016.6
20260903130507 58 320 21.7 27.8 0.00 0.18 0.00 96 1016.6
20260903130006 58 310 18.2 25.2 0.00 0.18 0.00 96 1016.9
20260903125006 58 320 20.9 27.8 0.00 0.18 0.00 96 1016.8
20260903123006 58 315 19.1 37.4 0.00 0.18 0.00 95 1016.8
20260903121506 58 311 21.7 31.3 0.00 0.18 0.00 95 1016.9
20260903121007 58 314 21.7 26.9 0.00 0.18 0.00 96 1016.8
20260903120507 58 319 22.6 27.8 0.00 0.18 0.00 96 1016.7
20260903115006 58 316 20.0 26.1 0.00 0.18 0.18 96 1016.9
20260903113506 58 323 17.4 25.2 0.00 0.18 0.18 96 1016.9
20260903113006 58 310 15.6 24.3 0.00 0.18 0.18 96 1016.8
20260903112507 58 312 15.6 22.6 0.00 0.18 0.18 96 1016.9
20260903111506 58 316 21.7 26.9 0.00 0.18 0.18 97 1017.0
20260903111008 58 319 20.0 22.6 0.00 0.18 0.18 97 1017.1
20260903110506 58 320 18.2 25.2 0.00 0.18 0.18 97 1017.1
20260903105006 58 317 15.6 25.2 0.00 0.18 0.18 96 1017.1
20260903104007 58 311 17.4 25.2 0.00 0.18 0.18 96 1017.4
20260903102505 58 318 18.2 26.9 0.00 0.18 0.18 97 1017.2
20260903100506 58 322 16.5 25.2 0.00 0.18 0.18 97 1017.5
20260903100008 58 322 19.1 26.1 0.00 0.18 0.18 97 1017.5
20260903095006 58 319 14.8 25.2 0.00 0.18 0.18 97 1017.5
20260903094007 58 316 18.2 26.1 0.00 0.18 0.18 97 1017.6
20260903093506 58 314 17.4 24.3 0.00 0.18 0.18 97 1017.4
20260903092005 58 309 19.1 26.1 0.00 0.18 0.18 97 1017.2
20260903091506 58 309 14.8 24.3 0.00 0.19 0.18 97 1017.4
20260903091007 58 303 15.6 26.1 0.00 0.19 0.18 97 1017.2
20260903090506 58 309 19.1 26.1 0.00 0.19 0.18 97 1017.2
20260903090006 58 314 19.1 25.2 0.00 0.19 0.18 97 1017.3
20260903085007 58 312 11.3 21.7 0.00 0.19 0.18 97 1017.5
20260903084505 58 307 17.4 22.6 0.00 0.19 0.18 97 1017.3
20260903082505 58 309 18.2 26.1 0.00 0.20 0.18 97 1017.3
20260903081006 58 313 18.2 22.6 0.00 0.20 0.18 97 1017.3
20260903080007 58 314 20.0 25.2 0.00 0.20 0.18 97 1017.3
20260903075506 58 311 17.4 25.2 0.00 0.20 0.18 97 1017.2
20260903075006 58 314 19.1 25.2 0.00 0.20 0.18 97 1017.1
20260903074506 58 311 18.2 25.2 0.00 0.20 0.18 97 1017.3
20260903074007 57 312 18.2 22.6 0.00 0.20 0.18 97 1017.1
20260903073507 58 313 15.6 24.3 0.00 0.20 0.18 97 1017.1
20260903073006 58 320 18.2 21.7 0.00 0.20 0.18 97 1017.0
20260903072505 58 313 17.4 21.7 0.00 0.20 0.18 97 1017.1
20260903072006 58 309 18.2 26.1 0.00 0.20 0.18 97 1017.2
20260903071507 58 313 20.0 26.1 0.00 0.20 0.18 97 1016.8
20260903071006 58 310 19.1 26.1 0.00 0.20 0.18 97 1016.7
20260903065006 57 320 19.1 24.3 0.00 0.20 0.18 96 1016.8
20260903062006 57 319 20.0 26.9 0.00 0.20 0.18 95 1016.8
20260903061006 57 312 21.7 27.8 0.02 0.20 0.18 95 1016.7
20260903060506 57 320 18.2 26.9 0.02 0.20 0.18 94 1016.7
20260903055508 57 312 14.8 21.7 0.03 0.20 0.18 94 1016.8
20260903055005 57 259 8.7 24.3 0.03 0.20 0.18 94 1016.6
20260903054505 57 317 20.0 31.3 0.03 0.20 0.18 94 1016.9
20260903054007 57 320 25.2 34.8 0.03 0.20 0.18 93 1016.4
20260903052007 57 322 20.0 26.1 0.02 0.20 0.17 90 1016.7
20260903051005 57 319 17.4 26.9 0.01 0.19 0.16 88 1016.7
20260903050005 58 303 18.2 30.4 0.00 0.17 0.15 85 1016.7
20260903045005 58 318 18.2 24.3 0.00 0.17 0.15 83 1016.7
20260903044007 58 320 20.9 27.8 0.00 0.17 0.15 82 1016.8
20260903043006 59 310 15.6 25.2 0.00 0.17 0.15 82 1016.8
20260903042507 59 321 20.9 28.7 0.00 0.17 0.15 81 1016.7
20260903042006 59 314 19.1 24.3 0.00 0.17 0.15 81 1017.0
20260903041506 59 319 17.4 27.8 0.00 0.17 0.15 81 1016.9
20260903040505 58 316 20.0 28.7 0.00 0.17 0.15 81 1016.9
20260903040008 58 314 20.0 26.9 0.00 0.17 0.15 81 1017.0
20260903034505 59 314 20.9 27.8 0.00 0.17 0.15 80 1017.1
20260903033007 59 307 16.5 26.1 0.00 0.17 0.15 80 1017.4
20260903032505 60 304 15.6 30.4 0.00 0.17 0.15 79 1017.3
20260903031008 60 304 17.4 27.8 0.00 0.17 0.15 79 1017.3
20260903025007 60 313 20.9 27.8 0.00 0.17 0.15 79 1017.6
20260903024505 60 317 18.2 25.2 0.00 0.17 0.15 79 1017.4
20260903024005 60 317 20.9 26.9 0.00 0.17 0.15 78 1017.6
20260903023007 61 305 17.4 25.2 0.00 0.17 0.15 78 1017.4
20260903022505 61 319 18.2 25.2 0.00 0.17 0.15 79 1017.7
20260903021506 62 311 15.6 25.2 0.00 0.17 0.15 81 1017.6
20260903020505 62 312 16.5 25.2 0.00 0.17 0.15 81 1017.7
20260903020005 62 309 14.8 24.3 0.00 0.17 0.15 79 1018.0
20260903015006 63 306 12.2 22.6 0.00 0.17 0.15 79 1018.0
20260903014505 63 309 16.5 21.7 0.00 0.17 0.15 78 1018.1
20260903014005 64 310 15.6 20.9 0.00 0.17 0.15 78 1018.1
20260903013506 64 317 18.2 25.2 0.00 0.17 0.15 77 1018.2
20260903013006 64 302 11.3 22.6 0.00 0.17 0.15 77 1018.2
20260903012007 65 298 14.8 20.9 0.00 0.17 0.15 78 1018.5
20260903011505 65 304 11.3 20.9 0.00 0.17 0.15 77 1018.4
20260903010506 65 280 9.6 17.4 0.00 0.17 0.15 77 1018.6
20260903005505 65 288 10.4 20.0 0.00 0.17 0.15 78 1018.6
20260903004505 65 286 10.4 20.0 0.00 0.17 0.15 79 1018.9
20260903004005 65 307 9.6 19.1 0.00 0.17 0.15 80 1019.1
20260903003506 65 289 8.7 18.2 0.00 0.17 0.15 79 1019.0
20260903003005 65 308 10.4 17.4 0.00 0.17 0.15 80 1019.1
20260903002505 65 272 8.7 20.0 0.00 0.17 0.15 79 1019.2
20260903002004 65 315 15.6 21.7 0.00 0.17 0.15 79 1019.2